GFSCGP_con_3kmhel_195.txt.gz
Helicity
48 3 2 25 57 68 23 15 15 9 28 -4 -21 1 97 109 30 50 0 38 55 108 81 62 32 58 93 108 75 27 12 59 42 34 -21 5 17 10 15 22 36 30 22 3
8 17 -13 26 15 -5 -8 -16 26 2 20 -4 -26 -39 -2 44 81 28 54 20 -2 45 137 78 45 45 35 66 91 64 34 43 12 3 -21 -15 35 12 18 9 23 12 7 -4
-21 4 15 -4 11 26 14 23 23 20 17 -20 37 -18 -10 28 42 72 25 34 11 84 73 63 70 53 48 59 43 80 65 24 6 8 15 40 34 33 13 1 11 7 -7 -2
0 -5 18 -3 12 5 28 10 14 -5 49 23 115 -10 89 29 25 83 81 51 19 38 -3 134 45 50 58 68 47 39 74 35 9 10 22 39 -9 1 23 14 18 20 1 12
15 7 -12 1 4 31 30 10 30 -15 -8 -4 87 40 -26 -21 15 65 44 93 29 48 5 75 40 65 34 47 71 42 65 62 9 27 15 31 -12 23 18 24 53 9 25 25
17 21 -11 8 13 3 15 30 60 50 -6 92 -1 121 11 -41 31 24 37 29 68 -10 55 34 15 57 32 50 56 66 80 56 44 34 18 4 32 37 38 18 7 7 23 14
37 4 11 -2 -5 26 20 70 29 3 -13 18 -88 -5 31 11 26 -4 -12 35 26 68 11 33 57 56 45 59 54 60 75 71 41 28 26 12 21 24 52 26 23 12 -15 28
36 63 27 16 4 19 41 35 -3 66 28 -4 3 -5 34 25 17 7 4 21 35 47 34 23 39 85 68 76 59 49 95 54 44 19 6 10 11 -1 6 13 12 16 14 39
18 -2 65 25 27 23 39 10 37 14 -15 -10 57 87 92 21 11 -15 -11 26 30 41 69 49 56 43 47 53 58 38 80 48 31 27 8 8 9 -12 -6 -6 23 33 50 54
14 20 35 29 -16 -3 19 36 24 27 2 19 62 0 54 36 16 18 4 5 49 40 44 24 43 25 22 39 51 34 54 59 26 22 29 17 21 17 0 13 32 31 38 27
18 4 31 51 16 28 55 35 26 41 21 25 5 77 0 29 16 12 14 31 53 66 26 33 30 31 28 28 60 51 56 59 35 27 36 23 26 31 28 27 30 25 10 36
-2 0 10 6 29 25 31 30 12 13 24 13 19 59 -57 40 21 8 14 27 25 36 45 20 20 46 40 47 60 44 50 58 42 42 37 52 43 39 55 52 37 44 44 44
25 19 16 13 3 54 24 -22 6 29 6 25 -5 69 31 36 25 11 40 34 65 32 35 29 36 41 39 55 51 63 63 48 61 68 70 55 66 62 48 49 48 36 59 63
82 39 24 19 111 96 123 17 -20 7 17 11 23 49 58 25 47 38 -4 101 90 47 48 38 27 38 39 56 55 57 45 38 41 61 63 69 66 64 47 55 60 66 68 83
49 35 29 29 37 104 7 20 15 22 46 33 55 146 291 72 84 82 42 54 78 52 68 51 44 40 33 55 56 40 32 27 40 38 55 82 97 93 90 81 96 97 96 96
41 62 58 31 35 29 3 -15 6 32 11 24 16 49 156 80 54 27 48 58 43 62 46 59 36 58 59 73 75 66 66 65 69 67 64 70 114 109 70 70 82 81 82 91
84 83 61 17 17 30 38 36 40 20 23 29 42 -5 30 41 31 10 36 47 38 23 14 35 38 60 53 70 81 100 100 105 114 109 97 84 100 120 82 73 65 61 67 73
72 95 61 55 32 60 28 19 47 57 57 24 11 30 152 122 13 18 20 37 36 23 20 6 32 64 74 74 90 107 117 126 125 133 117 117 124 111 85 94 79 68 80 86
26 54 76 63 46 11 12 16 3 35 19 24 36 45 31 35 31 23 23 24 43 30 48 73 55 84 138 121 129 154 164 158 162 165 145 140 145 136 113 92 92 99 95 99
21 35 70 61 63 43 19 30 73 128 34 115 127 139 63 18 61 17 45 47 28 24 80 115 119 149 123 135 143 152 165 176 194 234 206 221 199 191 165 130 115 115 106 112
46 71 60 80 86 38 27 34 81 79 85 125 118 228 147 103 72 88 69 124 90 103 180 158 156 126 151 158 138 133 191 215 306 258 221 220 199 195 172 145 129 123 128 99
59 71 50 48 62 54 85 42 73 149 134 112 114 169 205 192 124 88 59 59 70 99 135 137 147 174 167 163 143 186 288 317 236 214 199 184 181 181 195 152 136 140 119 84
56 62 70 76 98 95 112 210 221 198 155 70 98 129 187 163 140 79 73 90 103 121 124 141 149 151 154 133 149 234 221 202 188 180 182 176 161 161 133 114 98 83 86 89
106 92 141 197 69 112 153 119 201 245 247 154 55 106 129 144 123 92 100 119 119 116 99 129 119 116 129 136 189 187 177 172 160 153 157 167 174 142 102 77 59 45 45 66
72 43 62 33 265 93 60 275 168 194 221 206 179 144 181 137 129 83 105 105 88 89 102 97 98 113 116 141 152 153 147 131 120 137 149 148 126 91 64 62 48 38 36 3
25 65 73 57 45 97 163 85 115 86 51 122 92 110 158 141 115 54 73 77 94 103 110 110 114 109 112 121 137 148 135 109 101 104 104 106 60 45 65 38 32 40 25 -22

GFSCGP_con_3kmhel_198.txt.gz
Helicity
32 9 23 50 30 54 22 -4 14 77 -5 -3 -21 74 154 65 47 61 9 2 93 111 112 91 131 163 200 145 144 79 74 107 86 40 -5 -6 -21 12 33 -0 38 33 16 1
-6 58 17 11 35 32 4 24 42 13 -1 3 12 -6 150 79 76 167 44 -16 -12 106 148 103 90 197 188 212 150 124 120 93 92 14 -13 -49 -54 -2 11 66 24 15 11 18
9 41 43 7 6 27 52 37 92 31 -29 190 19 -10 64 115 31 110 102 44 -6 82 177 122 47 143 133 222 192 151 131 81 45 13 -40 -25 -22 27 17 9 35 21 6 9
-0 16 -10 -4 -0 16 41 63 14 -1 10 12 104 24 -43 20 15 88 84 58 36 150 161 81 112 80 136 151 182 180 150 87 -8 -10 13 -0 6 29 22 6 15 54 47 31
-0 29 -2 24 7 2 -10 -21 -0 5 -8 128 63 50 -3 128 44 37 -10 101 -20 104 98 168 38 103 60 150 215 215 164 108 32 -16 24 52 -24 -31 41 28 37 52 59 -16
-4 21 -9 -2 -3 18 -18 3 19 20 51 62 39 6 66 59 139 -14 -92 12 90 -13 119 176 141 97 63 128 151 257 217 117 37 -25 -4 -3 8 -5 52 15 55 24 50 19
14 2 -2 -0 10 -12 27 35 1 -7 120 48 51 -4 29 53 63 26 -0 37 60 78 70 129 94 217 188 91 126 230 241 161 93 18 22 7 -6 10 52 26 -3 22 -1 -3
12 86 115 42 -5 20 18 16 31 54 99 47 35 8 10 22 52 40 8 20 -16 97 -24 63 136 173 162 100 139 122 243 177 110 47 10 9 4 20 46 20 20 -13 41 38
35 25 92 25 27 16 26 19 33 -7 11 6 80 21 22 -17 42 18 -6 17 24 61 -3 33 101 141 150 119 144 105 219 183 113 57 26 5 -22 -33 -3 1 -2 -15 32 79
14 12 17 48 38 36 9 16 16 13 22 58 41 94 110 61 33 44 23 -0 52 28 38 28 62 82 123 124 127 83 172 161 117 59 55 24 23 10 -33 -29 -19 11 25 59
6 16 34 29 58 5 43 46 34 20 2 -4 24 -22 119 48 74 18 37 33 35 42 36 12 64 87 78 106 136 84 128 121 59 45 102 45 60 53 30 -6 -7 8 8 30
9 12 -1 -23 33 37 26 14 9 14 -17 33 3 43 133 108 -32 5 36 36 45 44 44 4 76 76 54 97 142 106 127 132 77 52 47 87 53 35 77 52 37 26 35 30
40 23 18 31 15 60 48 19 22 16 9 20 32 135 8 14 85 35 47 62 87 81 50 39 48 94 77 94 126 132 109 98 85 64 71 74 80 74 66 86 93 71 70 90
56 30 48 26 12 61 62 133 88 57 30 34 14 101 92 233 155 50 116 81 88 100 78 70 53 87 56 99 111 127 123 83 71 96 98 83 110 104 95 53 84 108 84 65
67 37 34 28 20 60 40 69 2 -45 48 125 27 58 125 204 76 95 124 -36 76 116 126 91 74 77 38 77 99 96 101 89 68 52 92 107 142 142 147 100 97 109 127 111
31 52 45 17 47 48 190 18 16 8 9 250 35 18 166 79 223 119 -44 73 -40 106 126 113 73 99 64 50 66 80 81 69 61 65 60 87 134 144 149 155 99 117 131 123
45 41 95 34 44 26 57 118 204 75 103 41 148 22 111 151 51 173 -13 -71 -13 107 94 121 82 117 99 82 117 96 92 83 78 84 96 110 104 118 139 148 135 116 94 93
45 52 66 67 49 31 36 7 23 35 24 87 61 81 16 -41 62 19 -10 -48 -13 102 71 99 110 162 136 87 105 101 111 130 141 141 125 135 150 137 116 107 123 119 105 80
25 39 63 70 59 1 21 34 37 17 53 11 167 41 147 40 78 104 73 50 41 20 77 65 90 120 195 127 153 140 158 164 168 163 158 154 170 149 137 142 132 148 151 124
7 35 69 67 77 49 30 30 27 36 15 86 128 187 173 139 134 64 147 537 140 121 -42 61 85 135 205 218 189 189 178 169 158 166 183 242 285 277 225 251 248 211 170 158
57 69 72 62 89 58 60 114 19 56 82 108 140 115 53 119 132 168 211 645 190 62 151 134 152 266 263 213 225 187 174 135 223 335 311 292 285 234 210 217 197 179 160 137
78 85 43 73 49 85 279 195 100 101 131 185 175 113 144 48 62 154 17 216 139 122 160 180 269 279 237 239 213 140 265 289 341 345 271 244 215 190 218 193 177 177 157 137
129 121 136 136 71 26 58 52 292 202 156 182 159 123 150 145 127 9 94 81 93 93 150 188 282 358 297 181 128 263 212 204 215 229 216 178 141 130 125 138 157 162 148 114
117 91 106 128 94 95 156 84 120 404 233 282 216 140 141 139 90 120 89 94 120 116 177 275 277 190 153 128 204 200 157 174 182 187 154 123 109 130 146 153 99 81 60 47
101 131 114 95 64 100 12 64 141 116 76 240 276 173 185 168 75 97 78 88 113 141 204 215 165 157 129 152 143 126 130 143 158 137 125 105 120 91 129 95 73 49 39 3
21 37 96 116 42 53 83 53 54 14 272 231 167 127 198 240 238 170 58 137 133 146 170 143 150 129 116 113 112 120 118 147 158 153 111 88 90 87 118 81 67 84 20 -60

GFSCGP_con_3kmhel_201.txt.gz
Helicity
10 57 53 121 99 115 54 -6 13 100 45 71 26 84 108 99 -3 -46 -19 -49 157 243 152 182 162 189 163 214 230 159 106 97 76 32 39 -36 -53 -4 20 38 10 0 -13 27
-7 19 92 95 115 12 46 14 24 20 11 126 44 52 58 77 55 -78 -17 -57 63 134 237 192 158 237 272 204 197 172 123 90 66 50 9 -22 -23 6 35 21 -18 -30 -14 -24
32 62 62 76 33 10 24 91 99 -27 56 93 -4 108 91 74 287 -11 -40 -139 -51 143 271 255 236 302 310 237 180 188 160 114 77 25 -5 -33 16 30 43 43 3 -16 -2 7
82 133 113 6 42 -12 37 5 -1 -12 48 6 44 20 54 157 276 11 12 -25 -108 160 244 245 215 323 335 256 174 183 152 121 60 16 -36 -30 -27 -24 -23 -25 1 -5 19 23
28 39 38 6 -21 -8 6 21 -1 31 -28 -5 -5 19 21 105 95 166 75 -5 -36 122 253 267 186 249 241 273 228 199 111 118 52 30 -6 -19 -30 -46 -34 -31 3 -1 -13 -11
-7 21 -11 -18 -4 -21 17 -8 8 73 17 23 73 22 -6 69 82 36 -5 -91 0 64 256 204 138 213 201 203 196 214 147 121 52 28 10 -9 15 -17 36 -26 -12 12 -2 -12
50 44 -18 2 -7 -14 -18 7 32 -5 80 235 114 -70 64 44 62 88 62 -17 -44 8 221 181 230 283 223 243 228 203 188 105 61 66 46 18 -7 -8 -6 3 19 5 -8 -14
9 27 156 134 109 4 21 -14 103 117 116 78 154 102 -8 76 -5 50 98 107 9 -30 180 191 173 291 210 322 216 220 218 137 81 39 65 20 -21 15 -5 4 11 7 33 13
36 39 -14 122 85 104 21 22 8 58 3 74 50 25 47 215 77 14 -6 12 79 137 203 195 234 266 214 279 215 209 207 163 135 68 47 14 -2 2 5 -7 -24 -35 4 33
66 20 5 57 55 60 98 19 4 26 15 23 104 95 115 149 13 59 38 32 161 93 131 191 216 156 147 170 220 183 209 212 161 107 65 17 11 -18 -14 -16 -14 -16 -23 53
39 37 52 7 71 58 43 29 9 14 13 13 -1 -9 96 93 24 109 -18 41 55 73 155 170 141 116 143 203 210 183 175 175 153 119 69 33 21 4 -10 -14 -11 -16 -3 64
32 39 23 50 40 18 41 -4 9 -18 -31 -39 -18 97 49 76 0 86 13 77 66 90 107 115 156 186 230 208 173 188 164 149 112 89 60 52 40 36 37 23 2 -8 -16 -11
21 46 53 35 38 74 65 41 48 18 15 -18 -26 19 127 92 11 -69 -5 48 77 99 88 199 212 208 218 211 174 166 132 113 87 71 84 73 78 88 77 83 58 45 43 34
153 -14 10 51 6 -11 -21 15 -34 -81 -8 -12 77 83 -9 -5 23 124 557 79 117 130 93 155 142 138 180 180 159 144 128 114 79 59 55 91 105 95 91 88 79 69 67 68
134 92 23 9 9 14 44 15 15 -25 -49 -61 14 104 114 80 34 172 175 84 16 -36 64 167 138 117 146 167 145 152 154 148 115 83 91 82 96 97 99 93 100 83 106 98
63 72 52 45 45 43 17 51 10 16 15 -60 71 -12 16 72 102 106 116 67 25 -60 -12 110 128 112 122 134 132 142 142 139 135 116 109 108 110 140 157 148 129 114 100 133
149 109 105 30 70 72 61 65 24 87 53 -67 -77 -72 264 60 27 32 229 109 163 34 26 158 114 96 82 92 101 106 128 127 113 91 84 96 129 154 165 158 133 90 95 115
171 196 140 73 62 50 26 33 42 86 161 3 42 53 71 139 40 170 125 81 89 187 101 61 195 93 78 86 84 95 119 121 114 101 99 108 124 156 160 156 137 104 96 107
56 139 185 142 75 41 35 45 41 60 75 35 6 131 260 130 127 209 193 171 151 17 -63 -109 -31 175 134 140 140 137 118 117 116 120 135 144 158 168 141 132 124 126 145 131
37 48 104 129 134 76 40 95 102 69 35 30 81 90 127 106 133 132 168 238 406 373 -17 -68 -91 207 180 167 190 197 182 178 157 144 140 154 164 146 212 270 242 257 179 149
31 61 132 90 160 151 201 135 86 85 169 344 110 139 76 63 60 102 92 149 137 17 12 97 11 202 208 260 282 232 201 181 121 156 218 244 282 303 294 262 214 215 186 165
79 91 144 140 146 127 83 -13 86 125 314 239 297 205 164 108 66 57 51 167 165 251 66 148 -71 211 324 351 371 281 209 166 234 291 309 289 290 246 221 206 184 179 186 179
204 70 86 123 174 10 -30 10 3 14 23 167 124 466 345 211 153 77 37 44 152 -6 -112 224 -84 428 424 423 398 295 237 285 282 297 291 285 253 218 182 160 158 181 189 152
155 129 184 163 22 72 -4 74 46 52 163 115 240 441 490 230 133 109 62 37 19 24 26 198 394 509 498 352 284 245 199 197 235 246 227 218 197 170 133 165 158 142 120 85
104 97 140 153 139 131 130 68 45 54 62 44 40 42 104 231 129 117 179 -6 90 138 208 321 366 364 302 266 229 198 180 201 195 173 176 179 159 153 157 167 115 112 75 42
67 106 103 118 138 116 147 141 104 81 102 77 42 52 93 150 43 90 161 240 115 189 231 289 291 314 271 224 181 155 155 156 133 140 141 119 126 96 113 113 107 81 72 13

GFSCGP_con_3kmhel_204.txt.gz
Helicity
-22 38 10 39 84 148 152 97 -4 2 34 175 220 126 145 151 45 18 -42 81 19 195 198 181 170 199 226 216 250 218 122 53 66 16 30 9 -17 -1 1 7 19 -10 10 32
-39 -20 96 138 149 134 148 87 -30 53 26 126 106 56 82 106 193 92 80 159 30 26 162 187 225 242 230 218 193 209 166 97 61 16 -12 20 -48 -30 4 20 14 -26 -19 9
91 49 16 60 143 96 54 12 -24 48 -2 78 59 66 83 133 131 49 -70 -32 49 41 111 182 278 257 256 217 197 193 178 108 48 15 -21 35 20 24 41 41 46 0 -9 14
26 162 143 146 119 69 25 -1 92 16 46 28 172 61 80 156 158 120 1 -87 -62 43 96 193 270 179 282 209 208 209 219 112 38 14 16 -2 1 23 28 37 18 13 4 -1
-14 64 60 13 50 41 32 105 39 38 -23 21 12 58 31 165 114 197 105 -14 -93 -22 155 243 332 233 231 169 211 207 193 89 39 26 38 -5 -2 10 33 41 18 27 7 4
77 19 -16 -34 2 -16 -9 74 56 22 -4 26 5 34 -31 89 152 100 102 -37 -68 -80 53 262 263 218 200 170 214 183 183 95 43 32 29 7 -29 -38 10 16 18 14 9 -7
38 71 30 -2 -56 -7 27 48 38 38 39 132 128 79 3 46 82 116 118 130 14 -50 80 258 306 272 152 208 258 188 147 76 41 35 23 20 -12 -5 3 17 20 6 -16 -25
31 77 21 67 210 120 30 30 24 19 25 95 51 79 151 97 58 20 61 30 58 30 60 216 254 265 195 240 233 176 130 48 52 21 30 17 28 26 -12 -12 7 -6 4 -8
60 88 68 37 88 147 25 24 27 64 69 60 37 -7 -44 35 59 -7 15 8 78 130 88 236 235 213 207 235 219 177 133 63 71 45 29 25 17 20 -13 -29 7 -2 14 26
158 112 40 0 72 41 100 2 33 21 9 -4 24 26 46 28 17 44 44 22 89 161 141 191 287 234 177 198 165 138 123 132 107 86 52 21 12 -4 -23 -51 -28 -23 8 15
27 76 103 14 23 101 61 -13 88 57 23 3 9 -2 -31 69 -28 67 103 20 88 157 207 272 234 228 186 182 166 146 112 120 113 103 86 34 8 13 -1 -12 -9 -1 10 19
-15 36 24 -53 8 -12 100 106 39 41 9 17 28 19 96 73 41 39 4 79 31 86 160 178 186 217 233 192 160 139 117 123 117 123 82 45 8 1 7 6 3 -3 7 22
24 54 74 37 64 90 30 -9 -48 -22 2 17 -6 13 196 82 109 103 14 62 124 97 93 160 156 151 199 193 148 132 114 99 89 95 60 19 16 22 28 28 21 8 -2 -1
62 51 51 55 6 -4 36 17 8 -6 -3 -10 -17 -15 46 13 57 101 12 -6 201 72 53 122 167 171 176 190 159 113 81 74 78 77 48 18 2 12 8 10 7 14 20 12
93 76 68 48 -15 6 12 27 49 23 15 26 -73 17 83 76 37 76 22 -45 -88 79 56 162 172 201 171 143 111 97 73 69 65 69 56 35 13 8 25 36 50 42 27 28
229 200 147 58 40 64 34 39 33 57 53 79 6 5 64 114 110 64 14 84 -165 -47 67 92 134 191 195 137 107 110 87 69 64 53 42 26 40 45 54 55 66 62 46 41
84 227 239 84 98 72 97 78 80 89 132 118 45 4 48 145 102 44 32 56 11 -31 92 89 61 138 165 153 122 98 96 80 71 46 24 25 36 61 66 71 81 65 53 41
23 79 151 139 145 93 40 34 8 20 74 100 44 40 37 -12 68 -11 77 71 37 71 109 84 166 128 29 69 110 78 85 99 85 59 53 51 67 77 79 105 104 90 79 82
72 66 84 136 131 124 95 120 73 29 60 160 102 113 98 91 90 72 35 124 102 23 20 361 202 134 72 -2 24 135 105 86 91 80 69 75 93 122 141 151 137 132 166 160
140 143 126 157 173 94 83 133 118 23 117 94 222 227 256 277 94 31 51 65 0 69 66 185 125 159 87 -1 39 56 140 120 100 107 101 112 140 161 184 219 212 227 197 184
147 165 175 174 182 196 149 150 169 119 94 171 276 214 249 238 253 176 26 64 85 126 174 180 71 42 119 44 32 41 121 98 130 159 167 178 217 269 268 251 236 231 215 189
106 161 185 193 220 225 118 100 121 59 8 3 156 174 184 263 127 113 139 30 54 71 92 110 89 -63 45 32 -43 36 79 206 202 244 272 274 268 242 242 260 239 225 195 184
189 126 107 104 152 137 60 74 21 20 18 45 62 92 135 108 45 4 24 126 60 45 92 92 -94 -18 -82 -7 -80 -26 276 334 270 271 276 256 261 244 225 244 231 218 206 198
96 153 186 184 215 144 106 89 62 26 37 69 43 84 112 52 94 140 89 -4 110 59 22 6 -5 80 139 38 -13 104 327 312 304 267 264 238 246 240 249 241 211 205 187 154
36 66 148 171 211 185 202 209 177 146 115 134 157 135 70 98 60 -5 -15 -10 23 -3 53 31 -70 -61 -2 266 54 247 267 289 265 259 235 211 211 233 245 216 169 152 112 100
71 77 54 36 57 113 135 160 150 159 148 120 78 73 91 107 90 99 75 3 1 42 78 168 -115 -11 -53 -23 81 222 246 222 223 205 201 183 203 211 206 172 146 112 88 71

GFSCGP_con_3kmhel_207.txt.gz
Helicity
9 -34 -41 -33 7 31 26 68 44 162 -50 126 101 132 180 149 141 39 93 114 66 107 144 195 110 157 207 195 208 217 127 25 82 34 34 30 14 39 34 24 17 16 13 9
-28 -6 46 8 14 66 101 130 132 -7 42 157 171 173 232 287 217 97 120 170 58 -11 70 122 114 169 213 225 200 209 155 100 69 60 20 67 32 48 36 29 26 16 -15 2
68 4 17 31 60 63 105 93 84 25 98 94 129 173 236 192 156 124 87 95 54 40 67 75 140 174 202 221 222 213 192 115 60 40 69 80 108 67 38 27 8 6 -9 5
50 -26 19 48 19 71 111 84 55 68 86 18 81 153 115 56 76 73 82 122 2 39 27 74 166 165 196 198 176 186 215 132 66 42 29 4 29 38 44 24 20 28 12 4
-2 54 -16 -88 24 88 57 61 61 70 58 9 57 140 151 9 34 111 63 59 11 18 12 120 225 238 153 159 166 188 195 138 84 54 25 16 52 32 54 54 25 27 31 14
46 60 -16 -6 1 33 85 95 86 49 -14 27 64 109 76 31 38 19 39 67 33 70 80 28 144 175 179 154 158 131 171 117 90 58 15 25 6 25 48 47 31 21 33 24
20 80 -6 71 39 102 164 117 -9 16 6 64 93 156 150 5 45 25 48 -17 73 68 54 27 156 340 308 -33 10 154 142 106 89 52 20 6 -16 13 6 18 18 25 32 20
16 62 0 23 114 49 92 87 4 6 17 83 47 108 63 -65 -14 -43 -44 35 51 109 47 105 147 344 488 162 81 147 128 98 85 64 22 -17 -23 4 12 17 23 24 22 14
75 112 53 68 38 51 24 41 3 51 42 63 10 -1 92 25 -7 50 13 72 66 65 118 98 174 294 319 220 165 172 114 96 93 61 37 -9 -21 -1 -1 9 10 18 32 34
96 115 25 -6 0 53 69 15 20 49 41 40 -5 16 27 81 26 -21 49 19 9 50 45 105 221 251 215 255 227 144 111 128 101 67 46 32 -1 -10 -3 19 0 16 14 13
96 73 39 6 23 17 55 85 99 56 78 35 32 -7 -50 15 -4 -26 12 7 -31 59 78 111 147 172 172 192 260 205 150 102 97 83 73 48 5 -25 -28 -17 -35 -12 34 13
61 114 32 -24 87 26 31 44 52 62 31 61 54 8 -1 38 6 3 4 23 -15 -55 13 190 186 154 129 128 180 145 144 120 84 87 86 67 31 -16 -24 -17 -7 4 4 14
47 103 132 85 101 70 87 56 63 52 72 59 59 13 42 54 -5 14 -15 45 56 56 38 91 141 166 142 134 154 116 105 105 94 95 93 79 38 10 -4 -5 -20 -22 -23 -15
62 103 132 86 48 42 43 19 42 60 65 34 18 16 -8 29 17 -26 39 142 91 78 17 55 114 132 125 135 129 94 78 87 99 86 75 74 44 23 1 -16 -16 -13 -8 -1
86 177 130 92 103 49 37 46 40 51 56 73 21 27 5 34 24 23 2 186 125 28 74 0 51 98 112 128 106 74 75 85 91 87 68 52 17 0 6 -2 -9 -5 0 5
84 160 177 193 93 140 85 70 76 84 86 69 83 16 26 12 61 -44 6 -30 29 48 89 33 13 15 138 118 117 103 89 78 85 61 52 24 -1 -23 -29 -8 3 -7 -2 -1
27 97 169 194 217 180 83 49 83 128 189 138 151 100 75 104 47 -8 -22 -3 6 63 147 54 44 97 85 122 119 110 84 88 77 42 24 2 -13 -9 -6 -3 3 10 13 9
108 126 102 168 185 126 104 167 136 98 67 82 88 88 79 63 39 38 36 -19 -44 -22 44 78 15 81 75 63 93 41 70 80 60 25 5 1 2 -2 6 19 24 24 22 34
112 166 157 207 225 215 187 159 157 141 101 92 88 107 93 62 63 56 76 67 -40 -47 10 -19 -6 25 54 118 83 102 66 57 47 21 23 35 28 14 32 51 43 37 64 100
158 141 173 218 218 202 223 236 187 146 130 124 96 151 169 120 126 86 138 75 56 46 -25 23 18 35 67 -10 176 124 84 86 38 48 85 111 108 83 55 95 143 159 176 180
147 178 170 179 189 248 267 234 166 183 125 72 71 115 180 156 86 115 138 77 -6 87 37 -9 0 -15 16 49 64 192 151 85 65 117 151 146 166 179 204 233 202 198 212 217
108 127 156 163 184 211 189 158 199 166 122 86 81 67 80 111 160 119 90 62 26 -15 -15 -6 -4 39 47 61 38 55 197 165 196 194 194 235 267 268 285 257 225 215 212 203
127 92 81 78 118 163 99 81 63 87 105 102 99 89 92 100 84 116 111 88 118 22 -165 -56 -73 -55 -55 95 63 34 0 207 283 282 279 299 310 290 245 250 250 259 227 194
110 90 119 132 125 130 128 113 98 102 91 90 91 89 85 64 65 84 60 33 8 -54 -85 -151 -60 -134 -217 -191 18 127 144 78 213 351 299 298 304 267 237 224 208 224 203 174
64 81 59 88 117 133 104 103 97 100 100 124 116 82 75 64 50 32 62 67 76 71 36 -58 -69 -47 -28 -158 -162 -26 60 203 195 309 380 315 282 249 213 220 193 177 154 152
94 84 112 70 52 74 70 58 67 75 89 97 86 82 45 38 39 23 66 112 101 50 2 -89 -56 -20 -40 36 -4 -91 -80 1 80 303 227 244 243 212 190 194 197 160 149 151